CW7220 Ibiza-ciudad ES current weather conditions

sailwx.info

Wind from 150 at 2 knots gusting 6

Air temperature 25.6° C
Dewpoint 19.7° C

Last reported at 2020-Aug-05 21:10 UTC.
Time now 2020-Aug-05 22:07 UTC

Location: N 38°54' E 001°25'.
View on Google Maps.

See reports from other nearby stations

  
Tides and Currents Weather Stations Pressure Air Temp Water Temp Dewpoint Dewpoint Depression Visibility Wind Speed Wind Dir Waves Ship Positions
date/time (UTC)wind fromknots sea level pressurealtimeterstation pressurevisibilityair tempwater tempwave heightnotes
2020-Aug-05 21:10 150 2 gusting 6 25.6
2020-Aug-05 21:05 126 2 gusting 6 25.6
2020-Aug-05 21:00 130 3 gusting 6 25.6
2020-Aug-05 20:55 121 2 gusting 6 25.6
2020-Aug-05 20:50 141 2 gusting 5 25.6
2020-Aug-05 20:45 151 2 gusting 7 25.6
2020-Aug-05 20:40 147 4 gusting 7 25.6
2020-Aug-05 20:35 144 2 gusting 10 25.6
2020-Aug-05 20:25 140 5 gusting 7 25.6
2020-Aug-05 20:20 146 1 gusting 6 25.6
2020-Aug-05 20:15 135 2 gusting 8 25.6
2020-Aug-05 20:10 140 6 gusting 8 25.6
2020-Aug-05 20:05 141 5 gusting 7 25.6
2020-Aug-05 20:00 124 4 gusting 7 25.6
2020-Aug-05 19:55 123 3 gusting 8 25.6
2020-Aug-05 19:50 156 4 gusting 8 25.6
2020-Aug-05 19:45 148 5 gusting 8 25.6
2020-Aug-05 19:40 133 3 gusting 8 25.6
2020-Aug-05 19:35 139 4 gusting 6 25.6
2020-Aug-05 19:30 162 2 gusting 7 25.6
2020-Aug-05 19:25 148 5 gusting 8 25.6
2020-Aug-05 19:20 149 4 gusting 8 25.6
2020-Aug-05 19:15 137 4 gusting 8 25.6
2020-Aug-05 19:10 139 4 gusting 8 25.6
2020-Aug-05 19:05 151 5 gusting 8 25.6
2020-Aug-05 19:00 147 3 gusting 10 25.6
2020-Aug-05 18:55 165 4 gusting 8 25.6
2020-Aug-05 18:50 136 3 gusting 8 25.6
2020-Aug-05 18:45 141 5 gusting 8 26.1
2020-Aug-05 18:40 140 5 gusting 10 26.1
2020-Aug-05 18:35 118 5 gusting 10 26.1
2020-Aug-05 18:30 137 6 gusting 7 26.1
2020-Aug-05 18:25 125 4 gusting 7 26.1
2020-Aug-05 18:20 141 5 gusting 8 26.1
2020-Aug-05 18:15 113 5 gusting 7 26.1
2020-Aug-05 18:10 148 5 gusting 8 26.7
2020-Aug-05 18:05 123 5 gusting 8 26.7
2020-Aug-05 18:00 108 3 gusting 7 26.7
2020-Aug-05 17:50 112 4 gusting 7 26.7
2020-Aug-05 17:45 135 3 gusting 8 26.7
2020-Aug-05 17:40 118 6 gusting 10 26.7
2020-Aug-05 17:35 136 5 gusting 8 26.7
2020-Aug-05 17:25 122 4 gusting 10 26.7
2020-Aug-05 17:20 110 5 gusting 10 26.7
2020-Aug-05 17:15 120 6 gusting 7 26.7
2020-Aug-05 17:10 142 3 gusting 8 26.7
2020-Aug-05 17:05 129 5 gusting 10 26.7
2020-Aug-05 17:00 133 5 gusting 10 26.7
2020-Aug-05 16:55 118 6 gusting 8 26.7
2020-Aug-05 16:50 127 5 gusting 10 27.2
2020-Aug-05 16:45 119 6 gusting 10 27.2
2020-Aug-05 16:40 142 4 gusting 10 27.2
2020-Aug-05 16:35 123 6 gusting 10 27.2
2020-Aug-05 16:30 136 4 gusting 8 27.2
2020-Aug-05 16:25 122 5 gusting 10 27.2
2020-Aug-05 16:20 139 2 gusting 7 27.2
2020-Aug-05 16:15 144 6 gusting 10 27.2
2020-Aug-05 16:10 147 5 gusting 10 27.2
2020-Aug-05 16:05 143 5 gusting 10 27.2
2020-Aug-05 16:00 124 5 gusting 10 27.2
2020-Aug-05 15:55 133 5 gusting 10 27.2
2020-Aug-05 15:50 125 6 gusting 11 27.2
2020-Aug-05 15:45 135 5 gusting 11 27.2
2020-Aug-05 15:40 149 5 gusting 10 27.2
2020-Aug-05 15:35 147 6 gusting 12 27.2
2020-Aug-05 15:30 135 6 gusting 10 27.2
2020-Aug-05 15:25 142 5 gusting 10 27.8
2020-Aug-05 15:20 143 6 gusting 10 27.2
2020-Aug-05 15:15 121 7 gusting 11 27.8
2020-Aug-05 15:10 124 5 gusting 11 27.8
2020-Aug-05 15:05 156 6 gusting 11 27.8
2020-Aug-05 15:00 133 6 gusting 11 27.8
2020-Aug-05 14:55 138 6 gusting 12 27.2
2020-Aug-05 14:50 122 6 gusting 11 27.8
2020-Aug-05 14:45 108 4 gusting 10 27.8
2020-Aug-05 14:40 106 6 gusting 13 27.8
2020-Aug-05 14:35 114 6 gusting 11 27.8
2020-Aug-05 14:30 114 5 gusting 13 27.8
2020-Aug-05 14:25 148 7 gusting 12 27.8
2020-Aug-05 14:20 122 6 gusting 12 27.2
2020-Aug-05 14:15 145 7 gusting 13 27.2
2020-Aug-05 14:10 124 6 gusting 12 27.2
2020-Aug-05 14:05 130 6 gusting 13 27.2
2020-Aug-05 14:00 145 8 gusting 13 27.2
2020-Aug-05 13:55 133 7 gusting 13 27.2
2020-Aug-05 13:50 147 7 gusting 13 27.2
2020-Aug-05 13:45 135 6 gusting 13 27.2
2020-Aug-05 13:40 141 6 gusting 12 27.2
2020-Aug-05 13:35 147 8 gusting 11 27.2
2020-Aug-05 13:30 152 6 gusting 12 27.2
2020-Aug-05 13:25 145 7 gusting 11 27.8
2020-Aug-05 13:20 143 5 gusting 10 27.8
2020-Aug-05 13:15 104 5 gusting 10 27.8
2020-Aug-05 13:10 153 6 gusting 11 27.2
2020-Aug-05 13:05 149 8 gusting 10 27.2
2020-Aug-05 13:00 141 6 gusting 10 27.2
2020-Aug-05 12:55 134 6 gusting 12 27.2
2020-Aug-05 12:50 141 6 gusting 12 27.2
2020-Aug-05 12:45 143 7 gusting 12 27.8
2020-Aug-05 12:40 129 5 gusting 11 27.8
2020-Aug-05 12:35 114 6 gusting 10 27.8
2020-Aug-05 12:30 142 4 gusting 10 27.2
2020-Aug-05 12:25 132 6 gusting 11 27.2
2020-Aug-05 12:20 135 7 gusting 12 27.2
2020-Aug-05 12:15 113 4 gusting 11 27.2
2020-Aug-05 12:10 132 6 gusting 10 27.8
2020-Aug-05 12:05 113 6 gusting 11 27.8
2020-Aug-05 12:00 113 5 gusting 10 27.8
2020-Aug-05 11:55 121 5 gusting 10 27.8
2020-Aug-05 11:50 134 6 gusting 10 27.8
2020-Aug-05 11:45 112 5 gusting 10 27.8
2020-Aug-05 11:40 130 5 gusting 10 27.8
2020-Aug-05 11:35 116 5 gusting 10 27.8
2020-Aug-05 11:30 133 5 gusting 12 27.8
2020-Aug-05 11:25 133 5 gusting 12 27.8
2020-Aug-05 11:20 113 5 gusting 10 27.8
2020-Aug-05 11:15 133 5 gusting 10 27.8
2020-Aug-05 11:10 143 4 gusting 10 27.2
2020-Aug-05 11:05 141 4 gusting 11 27.2
2020-Aug-05 11:00 139 6 gusting 11 27.2
2020-Aug-05 10:55 147 6 gusting 10 27.8
2020-Aug-05 10:50 114 5 gusting 8 27.8
2020-Aug-05 10:45 133 6 gusting 11 27.8
2020-Aug-05 10:40 115 5 gusting 12 27.2
2020-Aug-05 10:35 115 5 gusting 10 27.8
2020-Aug-05 10:30 112 4 gusting 8 27.8
2020-Aug-05 10:25 135 6 gusting 10 27.8
2020-Aug-05 10:20 120 4 gusting 7 27.8
2020-Aug-05 10:15 132 4 gusting 7 27.8
2020-Aug-05 10:10 145 5 gusting 8 27.2
2020-Aug-05 10:05 111 5 gusting 10 27.2
2020-Aug-05 10:00 112 6 gusting 11 27.2
2020-Aug-05 09:55 143 6 gusting 10 27.2
2020-Aug-05 09:50 128 4 gusting 10 27.2
2020-Aug-05 09:45 116 2 gusting 10 27.2
2020-Aug-05 09:40 140 6 gusting 10 27.2
2020-Aug-05 09:35 151 5 gusting 8 27.2
2020-Aug-05 09:30 145 3 gusting 8 27.2
2020-Aug-05 09:25 148 5 gusting 8 27.2
2020-Aug-05 09:20 141 6 gusting 10 26.7
2020-Aug-05 09:15 140 5 gusting 10 26.7
2020-Aug-05 09:10 141 6 gusting 8 26.7
2020-Aug-05 09:05 132 6 gusting 8 27.2
2020-Aug-05 09:00 137 5 gusting 8 27.2
2020-Aug-05 08:55 125 2 gusting 6 27.2
2020-Aug-05 08:50 154 4 gusting 8 26.7
2020-Aug-05 08:45 122 3 gusting 7 26.7
2020-Aug-05 08:40 147 6 gusting 8 26.7
2020-Aug-05 08:35 178 4 gusting 6 26.7
2020-Aug-05 08:30 153 4 gusting 7 26.7
2020-Aug-05 08:25 137 5 gusting 7 26.1
2020-Aug-05 08:20 153 4 gusting 7 26.1
2020-Aug-05 08:15 138 4 gusting 7 26.1
2020-Aug-05 08:10 132 4 gusting 8 26.1
2020-Aug-05 08:05 141 5 gusting 8 25.6
2020-Aug-05 08:00 152 5 gusting 8 26.1
2020-Aug-05 07:55 148 6 gusting 10 26.7
2020-Aug-05 07:50 131 5 gusting 7 26.1
2020-Aug-05 07:45 162 5 gusting 7 26.1
2020-Aug-05 07:40 148 6 gusting 10 26.1
2020-Aug-05 07:35 118 4 gusting 10 26.1
2020-Aug-05 07:30 135 4 gusting 8 26.1
2020-Aug-05 07:25 116 5 gusting 7 26.1
2020-Aug-05 07:20 142 5 gusting 7 26.1
2020-Aug-05 07:15 130 4 gusting 8 25.6
2020-Aug-05 07:10 134 3 gusting 7 25.6
2020-Aug-05 07:05 144 2 gusting 7 25.6
2020-Aug-05 07:00 128 4 gusting 6 25.6
2020-Aug-05 06:55 143 6 gusting 8 25.6
2020-Aug-05 06:50 147 4 gusting 6 25.6
2020-Aug-05 06:45 128 4 gusting 8 25.6
2020-Aug-05 06:40 124 1 gusting 6 25.6
2020-Aug-05 06:35 137 4 gusting 7 25.6
2020-Aug-05 06:30 131 5 gusting 8 25.0
2020-Aug-05 06:25 114 2 gusting 6 25.0
2020-Aug-05 06:20 133 2 gusting 6 24.4
2020-Aug-05 06:15 133 2 gusting 6 24.4
2020-Aug-05 06:10 105 1 gusting 2 24.4
2020-Aug-05 06:05 105 1 gusting 2 23.9
2020-Aug-05 06:00 105 23.9
2020-Aug-05 05:55 106 23.9
2020-Aug-05 05:50 115 1 gusting 2 23.3
2020-Aug-05 05:45 139 23.3
2020-Aug-05 05:40 139 22.8
2020-Aug-05 05:35 139 0 gusting 1 22.8
2020-Aug-05 05:30 139 0 gusting 1 22.8
2020-Aug-05 05:25 139 0 gusting 2 22.2
2020-Aug-05 05:20 140 1 gusting 2 22.2
2020-Aug-05 05:15 141 1 gusting 2 22.8
2020-Aug-05 05:10 142 1 gusting 2 22.8
2020-Aug-05 05:05 143 0 gusting 2 22.2
2020-Aug-05 05:00 143 0 gusting 1 22.2
2020-Aug-05 04:55 143 22.2
2020-Aug-05 04:50 143 0 gusting 1 22.2
2020-Aug-05 04:45 143 22.2
2020-Aug-05 04:40 143 22.2
2020-Aug-05 04:35 143 22.2
2020-Aug-05 04:30 143 0 gusting 1 22.2
2020-Aug-05 04:25 143 1 gusting 2 22.2
2020-Aug-05 04:20 144 1 gusting 2 22.2
2020-Aug-05 04:15 144 0 gusting 1 22.2
2020-Aug-05 04:10 144 1 gusting 2 22.2
2020-Aug-05 04:05 145 1 gusting 2 22.2
2020-Aug-05 04:00 145 1 gusting 2 22.2
2020-Aug-05 03:55 168 1 gusting 2 22.2
2020-Aug-05 03:50 172 1 gusting 4 22.2
2020-Aug-05 03:45 174 1 gusting 2 22.2
2020-Aug-05 03:40 174 1 gusting 2 22.2
2020-Aug-05 03:35 174 1 gusting 2 22.8
2020-Aug-05 03:30 174 1 gusting 2 22.8
2020-Aug-05 03:25 175 0 gusting 2 22.8
2020-Aug-05 03:20 175 0 gusting 2 22.8
2020-Aug-05 03:15 175 22.8
2020-Aug-05 03:10 175 22.8
2020-Aug-05 03:05 175 22.8
2020-Aug-05 03:00 175 22.8
2020-Aug-05 02:55 175 0 gusting 1 22.8
2020-Aug-05 02:50 175 1 gusting 2 22.8
2020-Aug-05 02:45 175 22.8
2020-Aug-05 02:40 175 22.8
2020-Aug-05 02:30 175 0 gusting 2 22.8
2020-Aug-05 02:25 175 2 gusting 2 22.8
2020-Aug-05 02:20 175 0 gusting 1 22.8
2020-Aug-05 02:15 175 22.8
2020-Aug-05 02:10 175 22.8
2020-Aug-05 02:05 175 22.8
2020-Aug-05 02:00 175 0 gusting 1 22.8
2020-Aug-05 01:55 175 22.8
2020-Aug-05 01:50 175 22.8
2020-Aug-05 01:45 175 22.8
2020-Aug-05 01:40 175 1 gusting 2 22.8
2020-Aug-05 01:35 175 1 gusting 2 23.3
2020-Aug-05 01:30 175 1 gusting 1 23.3
2020-Aug-05 01:25 175 0 gusting 1 23.3
2020-Aug-05 01:20 175 23.3
2020-Aug-05 01:15 175 23.9
2020-Aug-05 01:10 175 0 gusting 1 23.9
2020-Aug-05 01:05 175 0 gusting 2 23.9
2020-Aug-05 01:00 175 23.9
2020-Aug-05 00:55 175 23.9
2020-Aug-05 00:50 175 0 gusting 2 23.9
2020-Aug-05 00:45 175 0 gusting 2 23.9
2020-Aug-05 00:40 175 1 gusting 2 23.9
2020-Aug-05 00:35 175 0 gusting 2 23.9
2020-Aug-05 00:30 175 1 gusting 2 23.9
2020-Aug-05 00:25 175 1 gusting 2 23.9
2020-Aug-05 00:20 175 1 gusting 2 23.9
2020-Aug-05 00:15 175 1 gusting 2 23.9
2020-Aug-05 00:10 175 1 gusting 2 23.9
2020-Aug-05 00:05 175 0 gusting 2 24.4
2020-Aug-05 00:00 175 1 gusting 2 24.4
2020-Aug-04 23:55 175 1 gusting 2 24.4
2020-Aug-04 23:50 175 0 gusting 2 24.4
2020-Aug-04 23:45 175 0 gusting 1 24.4
2020-Aug-04 23:10 178 1 gusting 2 25.0
2020-Aug-04 23:05 178 2 gusting 6 25.0
2020-Aug-04 23:00 172 3 gusting 5 25.0
2020-Aug-04 22:55 167 4 gusting 6 25.0
2020-Aug-04 22:50 168 4 gusting 6 25.0
2020-Aug-04 22:45 153 3 gusting 6 25.6
2020-Aug-04 22:40 163 2 gusting 6 25.6
2020-Aug-04 22:35 146 3 gusting 7 25.6
2020-Aug-04 22:30 155 2 gusting 6 25.6
2020-Aug-04 22:25 153 2 gusting 6 25.6
2020-Aug-04 22:20 161 3 gusting 5 25.6
2020-Aug-04 22:15 156 2 gusting 6 25.6
2020-Aug-04 22:10 146 4 gusting 10 25.6
2020-Aug-04 22:05 139 4 gusting 10 25.6
2020-Aug-04 22:00 142 4 gusting 6 25.6
2020-Aug-04 21:55 133 4 gusting 6 25.6
2020-Aug-04 21:50 150 5 gusting 10 25.6
2020-Aug-04 21:45 155 5 gusting 10 25.6
2020-Aug-04 21:40 161 1 gusting 6 25.6
2020-Aug-04 21:35 160 4 gusting 7 25.6
2020-Aug-04 21:30 140 5 gusting 8 25.6
2020-Aug-04 21:25 144 5 gusting 8 25.6
2020-Aug-04 21:20 144 4 gusting 8 25.6
2020-Aug-04 21:15 147 3 gusting 7 25.6
2020-Aug-04 21:10 142 3 gusting 8 25.6
2020-Aug-04 21:05 142 3 gusting 6 25.6
2020-Aug-04 21:00 134 4 gusting 7 25.6
2020-Aug-04 20:55 127 3 gusting 6 25.6
2020-Aug-04 20:50 136 5 gusting 10 25.6
2020-Aug-04 20:45 138 5 gusting 8 25.6
2020-Aug-04 20:40 141 4 gusting 8 25.6
2020-Aug-04 20:35 133 4 gusting 6 25.6
2020-Aug-04 20:30 141 4 gusting 7 25.6
2020-Aug-04 20:25 127 4 gusting 7 25.6
2020-Aug-04 20:20 143 2 gusting 5 25.6
2020-Aug-04 20:15 121 4 gusting 6 25.6
2020-Aug-04 20:10 145 2 gusting 7 25.6
2020-Aug-04 20:05 136 4 gusting 6 25.6
2020-Aug-04 20:00 137 2 gusting 6 25.6
2020-Aug-04 19:55 109 1 gusting 7 25.6
2020-Aug-04 19:50 158 4 gusting 6 25.6
2020-Aug-04 19:45 128 2 gusting 7 25.6
2020-Aug-04 19:40 125 2 gusting 7 25.6
2020-Aug-04 19:35 134 3 gusting 6 25.6
2020-Aug-04 19:25 140 3 gusting 7 25.6
2020-Aug-04 19:20 140 6 gusting 8 25.6
2020-Aug-04 19:15 133 5 gusting 8 25.6
2020-Aug-04 19:10 134 4 gusting 6 25.6
2020-Aug-04 19:05 112 4 gusting 7 25.6
2020-Aug-04 19:00 140 4 gusting 7 25.6
2020-Aug-04 18:55 138 3 gusting 8 26.1
2020-Aug-04 18:50 132 2 gusting 6 26.1
2020-Aug-04 18:45 144 4 gusting 6 26.1
2020-Aug-04 18:40 138 5 gusting 7 26.1
2020-Aug-04 18:35 154 4 gusting 6 26.1
2020-Aug-04 18:30 156 5 gusting 8 26.1
2020-Aug-04 18:25 144 3 gusting 6 26.1
2020-Aug-04 18:20 148 5 gusting 8 26.1
2020-Aug-04 18:15 126 2 gusting 6 26.1
2020-Aug-04 18:10 152 4 gusting 7 26.1
2020-Aug-04 18:05 130 2 gusting 6 26.1
2020-Aug-04 18:00 137 5 gusting 8 26.1
2020-Aug-04 17:55 134 3 gusting 8 26.7
2020-Aug-04 17:50 130 3 gusting 7 26.7
2020-Aug-04 17:45 138 5 gusting 7 26.7
2020-Aug-04 17:40 148 5 gusting 10 26.7
2020-Aug-04 17:35 155 6 gusting 8 26.7
2020-Aug-04 17:30 141 5 gusting 10 26.7
2020-Aug-04 17:25 144 5 gusting 10 26.7
2020-Aug-04 17:20 139 5 gusting 10 26.7
2020-Aug-04 17:15 145 5 gusting 10 26.7
2020-Aug-04 17:10 148 4 gusting 10 26.7
2020-Aug-04 17:05 138 2 gusting 10 26.7
2020-Aug-04 17:00 145 6 gusting 10 26.7
2020-Aug-04 16:55 144 4 gusting 10 26.7
2020-Aug-04 16:50 143 5 gusting 10 26.1
2020-Aug-04 16:45 145 6 gusting 10 26.1
2020-Aug-04 16:40 119 6 gusting 10 26.1
2020-Aug-04 16:35 145 5 gusting 10 26.1
2020-Aug-04 16:30 149 6 gusting 10 26.1
2020-Aug-04 16:25 141 7 gusting 10 26.1
2020-Aug-04 16:20 133 5 gusting 10 26.7
2020-Aug-04 16:15 133 6 gusting 13 26.7
2020-Aug-04 16:10 143 7 gusting 11 26.7
2020-Aug-04 16:05 129 6 gusting 10 26.7
2020-Aug-04 16:00 129 7 gusting 12 26.7
2020-Aug-04 15:55 144 7 gusting 10 26.7
2020-Aug-04 15:50 147 7 gusting 12 26.7
2020-Aug-04 15:45 140 5 gusting 10 26.7
2020-Aug-04 15:40 141 4 gusting 10 26.7
2020-Aug-04 15:35 135 5 gusting 11 26.7
2020-Aug-04 15:30 130 6 gusting 10 26.7
2020-Aug-04 15:25 134 6 gusting 11 26.7
2020-Aug-04 15:20 160 6 gusting 10 27.2
2020-Aug-04 15:15 165 4 gusting 8 27.2
2020-Aug-04 15:10 146 5 gusting 10 27.2
2020-Aug-04 15:05 138 6 gusting 10 27.2
2020-Aug-04 15:00 133 5 gusting 10 27.2
2020-Aug-04 14:55 143 8 gusting 10 27.2
2020-Aug-04 14:50 135 6 gusting 11 27.8
2020-Aug-04 14:45 157 4 gusting 10 27.8
2020-Aug-04 14:40 165 5 gusting 11 27.8
2020-Aug-04 14:35 156 8 gusting 12 27.8
2020-Aug-04 14:30 150 6 gusting 11 27.8
2020-Aug-04 14:25 143 6 gusting 12 27.8
2020-Aug-04 14:20 144 7 gusting 12 27.8
2020-Aug-04 14:15 161 8 gusting 13 27.2
2020-Aug-04 14:10 157 5 gusting 10 27.2
2020-Aug-04 14:05 137 6 gusting 10 27.2
2020-Aug-04 13:55 161 6 gusting 13 27.2
2020-Aug-04 13:50 152 8 gusting 13 27.2
2020-Aug-04 13:45 160 6 gusting 12 27.2
2020-Aug-04 13:40 161 5 gusting 11 27.2
2020-Aug-04 13:35 164 6 gusting 12 27.2
2020-Aug-04 13:30 144 5 gusting 10 27.2
2020-Aug-04 13:25 159 7 gusting 12 27.2
2020-Aug-04 13:20 154 7 gusting 11 27.2
2020-Aug-04 13:15 148 6 gusting 10 27.2
2020-Aug-04 13:10 161 7 gusting 11 27.2
2020-Aug-04 13:05 140 5 gusting 10 27.2
2020-Aug-04 13:00 131 5 gusting 10 27.2
2020-Aug-04 12:55 138 8 gusting 13 26.7
2020-Aug-04 12:50 143 6 gusting 13 27.2
2020-Aug-04 12:45 137 6 gusting 11 27.2
2020-Aug-04 12:40 145 7 gusting 13 27.2
2020-Aug-04 12:35 154 7 gusting 13 27.8
2020-Aug-04 12:30 167 5 gusting 12 27.8
2020-Aug-04 12:25 150 7 gusting 11 27.8
2020-Aug-04 12:20 166 6 gusting 12 27.2
2020-Aug-04 12:15 143 6 gusting 12 27.2
2020-Aug-04 12:10 151 6 gusting 10 26.7
2020-Aug-04 12:05 172 6 gusting 11 26.7
2020-Aug-04 12:00 152 6 gusting 10 26.7
2020-Aug-04 11:55 149 5 gusting 10 26.7
2020-Aug-04 11:50 140 6 gusting 10 26.7
2020-Aug-04 11:45 169 5 gusting 10 26.7
2020-Aug-04 11:40 123 6 gusting 13 26.7
2020-Aug-04 11:35 132 6 gusting 13 26.7
2020-Aug-04 11:30 139 7 gusting 13 26.7
2020-Aug-04 11:25 154 7 gusting 10 26.7
2020-Aug-04 11:20 137 6 gusting 10 27.2
2020-Aug-04 11:15 156 6 gusting 10 26.7
2020-Aug-04 11:10 183 5 gusting 10 27.2
2020-Aug-04 11:05 186 6 gusting 10 27.2
2020-Aug-04 11:00 149 6 gusting 11 26.7
2020-Aug-04 10:55 140 5 gusting 10 26.7
2020-Aug-04 10:50 162 6 gusting 12 26.7
2020-Aug-04 10:45 162 3 gusting 6 26.1
2020-Aug-04 10:40 192 6 gusting 12 26.1
2020-Aug-04 10:35 247 1 gusting 5 26.1
2020-Aug-04 10:30 224 2 gusting 6 25.6
2020-Aug-04 10:25 189 3 gusting 7 25.6
2020-Aug-04 10:20 210 1 gusting 5 25.6
2020-Aug-04 10:15 169 2 gusting 6 25.6
2020-Aug-04 10:10 213 2 gusting 6 25.0
2020-Aug-04 10:05 255 4 gusting 8 25.0
2020-Aug-04 10:00 229 4 gusting 8 25.0
2020-Aug-04 09:55 242 5 gusting 7 24.4
2020-Aug-04 09:50 243 2 gusting 6 24.4
2020-Aug-04 09:45 242 2 gusting 4 24.4
2020-Aug-04 09:40 242 1 gusting 6 24.4
2020-Aug-04 09:35 240 5 gusting 7 25.0
2020-Aug-04 09:30 219 1 gusting 6 25.6
2020-Aug-04 09:25 214 3 gusting 7 25.6
2020-Aug-04 09:20 195 6 gusting 10 25.6
2020-Aug-04 09:15 179 5 gusting 11 26.1
2020-Aug-04 09:10 157 5 gusting 10 26.1
2020-Aug-04 09:05 148 4 gusting 10 26.1
2020-Aug-04 09:00 144 5 gusting 10 26.1
2020-Aug-04 08:55 143 5 gusting 10 26.1
2020-Aug-04 08:50 151 3 gusting 10 26.1
2020-Aug-04 08:45 142 8 gusting 12 26.7
2020-Aug-04 08:40 146 6 gusting 11 26.7
2020-Aug-04 08:35 127 6 gusting 11 26.7
2020-Aug-04 08:25 140 5 gusting 8 26.1
2020-Aug-04 08:20 123 3 gusting 10 26.1
2020-Aug-04 08:15 147 6 gusting 10 26.1
2020-Aug-04 08:10 134 6 gusting 10 26.1
2020-Aug-04 08:05 147 5 gusting 7 26.1
2020-Aug-04 08:00 134 4 gusting 8 25.6
2020-Aug-04 07:55 124 2 gusting 6 25.6
2020-Aug-04 07:50 137 3 gusting 7 25.6
2020-Aug-04 07:45 150 4 gusting 7 25.6
2020-Aug-04 07:40 140 2 gusting 7 25.6
2020-Aug-04 07:35 143 4 gusting 10 25.6
2020-Aug-04 07:30 142 7 gusting 11 25.6
2020-Aug-04 07:25 141 6 gusting 11 25.6
2020-Aug-04 07:20 133 6 gusting 11 25.6
2020-Aug-04 07:15 147 5 gusting 11 25.0
2020-Aug-04 07:10 127 5 gusting 11 25.0
2020-Aug-04 07:05 105 3 gusting 7 25.0
2020-Aug-04 07:00 101 5 gusting 8 25.0
2020-Aug-04 06:55 110 4 gusting 8 25.0
2020-Aug-04 06:50 138 4 gusting 8 25.0
2020-Aug-04 06:45 148 3 gusting 7 25.0
2020-Aug-04 06:40 153 2 gusting 5 25.0
2020-Aug-04 06:35 158 3 gusting 6 25.0
2020-Aug-04 06:30 174 4 gusting 6 25.0
2020-Aug-04 06:25 141 2 gusting 6 25.0
2020-Aug-04 06:20 170 4 gusting 7 25.0
2020-Aug-04 06:15 192 5 gusting 7 25.6
2020-Aug-04 06:10 156 2 gusting 7 25.6
2020-Aug-04 06:05 152 4 gusting 7 25.0
2020-Aug-04 06:00 121 3 gusting 7 25.0
2020-Aug-04 05:55 126 3 gusting 7 25.0
2020-Aug-04 05:50 141 4 gusting 8 25.0
2020-Aug-04 05:45 127 5 gusting 8 25.0
2020-Aug-04 05:40 122 5 gusting 10 25.0
2020-Aug-04 05:35 126 4 gusting 8 25.0
2020-Aug-04 05:30 113 5 gusting 7 25.0
2020-Aug-04 05:25 128 4 gusting 8 25.0
2020-Aug-04 05:20 153 4 gusting 10 25.0
2020-Aug-04 05:15 140 2 gusting 6 25.0
2020-Aug-04 05:10 122 3 gusting 7 25.0
2020-Aug-04 05:05 116 2 gusting 6 25.0
2020-Aug-04 05:00 151 2 gusting 5 25.0
2020-Aug-04 04:55 140 1 gusting 4 25.0
2020-Aug-04 04:50 138 2 gusting 6 25.0
2020-Aug-04 04:45 130 0 gusting 6 25.0
2020-Aug-04 04:40 130 2 gusting 6 25.0
2020-Aug-04 04:35 131 1 gusting 6 25.0
2020-Aug-04 04:30 134 2 gusting 8 25.0
2020-Aug-04 04:25 143 4 gusting 10 25.0
2020-Aug-04 04:20 133 5 gusting 10 25.0
2020-Aug-04 04:15 141 2 gusting 6 25.0
2020-Aug-04 04:10 124 2 gusting 6 25.0
2020-Aug-04 04:05 080 4 gusting 6 25.0
2020-Aug-04 04:00 090 2 gusting 6 25.0
2020-Aug-04 03:55 092 1 gusting 4 25.0
2020-Aug-04 03:50 105 2 gusting 5 25.0
2020-Aug-04 03:45 122 3 gusting 7 25.0
2020-Aug-04 03:40 111 1 gusting 2 25.0
2020-Aug-04 03:35 131 1 gusting 6 25.0
2020-Aug-04 03:30 128 2 gusting 7 25.0
2020-Aug-04 03:25 125 2 gusting 7 25.0
2020-Aug-04 03:20 082 2 gusting 6 25.0
2020-Aug-04 03:15 092 0 gusting 5 25.0
2020-Aug-04 03:10 071 2 gusting 5 25.0
2020-Aug-04 03:05 083 2 gusting 6 25.0
2020-Aug-04 03:00 103 2 gusting 6 25.0
2020-Aug-04 02:55 091 2 gusting 6 25.0
2020-Aug-04 02:50 091 3 gusting 6 25.0
2020-Aug-04 02:45 089 1 gusting 5 25.0
2020-Aug-04 02:40 085 1 gusting 5 25.0
2020-Aug-04 02:35 078 2 gusting 2 25.0
2020-Aug-04 02:30 088 1 gusting 6 24.4
2020-Aug-04 02:25 081 0 gusting 2 24.4
2020-Aug-04 02:20 048 0 gusting 2 24.4
2020-Aug-04 02:15 047 0 gusting 2 24.4
2020-Aug-04 02:10 047 2 gusting 2 24.4
2020-Aug-04 02:05 049 1 gusting 2 24.4
2020-Aug-04 02:00 049 0 gusting 1 24.4
2020-Aug-04 01:55 049 24.4
2020-Aug-04 01:50 049 0 gusting 2 24.4
2020-Aug-04 01:45 049 24.4
2020-Aug-04 01:40 049 0 gusting 1 24.4
2020-Aug-04 01:35 049 24.4
2020-Aug-04 01:30 049 0 gusting 2 24.4
2020-Aug-04 01:25 049 2 gusting 2 24.4
2020-Aug-04 01:20 049 0 gusting 2 24.4
2020-Aug-04 01:15 049 1 gusting 2 24.4
2020-Aug-04 01:10 049 1 gusting 2 25.0
2020-Aug-04 01:05 109 2 gusting 2 25.0
2020-Aug-04 00:55 123 25.6
2020-Aug-04 00:50 123 1 gusting 2 25.6
2020-Aug-04 00:45 124 1 gusting 4 25.6
2020-Aug-04 00:40 122 1 gusting 4 25.6
2020-Aug-04 00:35 116 2 gusting 4 25.6
2020-Aug-04 00:25 130 25.6
2020-Aug-04 00:20 130 25.6
2020-Aug-04 00:15 130 0 gusting 2 25.6
2020-Aug-04 00:10 130 0 gusting 2 25.6
2020-Aug-04 00:05 150 0 gusting 4 25.6
2020-Aug-04 00:00 150 2 gusting 4 25.6
2020-Aug-03 23:55 150 1 gusting 5 25.6
2020-Aug-03 23:50 150 1 gusting 6 25.6
2020-Aug-03 23:45 150 1 gusting 4 25.6
2020-Aug-03 23:40 151 3 gusting 6 25.6
2020-Aug-03 23:35 134 2 gusting 6 25.6
2020-Aug-03 23:30 136 2 gusting 6 25.6
2020-Aug-03 23:25 147 1 gusting 4 25.6
2020-Aug-03 23:20 134 2 gusting 4 25.6
2020-Aug-03 23:15 135 4 gusting 6 25.6
2020-Aug-03 23:10 143 4 gusting 6 25.6
2020-Aug-03 23:05 128 2 gusting 6 25.6
2020-Aug-03 23:00 141 2 gusting 4 25.6
2020-Aug-03 22:55 149 1 gusting 5 25.6
2020-Aug-03 22:50 144 2 gusting 6 25.6
2020-Aug-03 22:45 102 2 gusting 6 25.6
2020-Aug-03 22:40 116 1 gusting 6 25.6
2020-Aug-03 22:35 106 1 gusting 6 25.6
2020-Aug-03 22:25 128 3 gusting 6 25.6
2020-Aug-03 22:20 136 0 gusting 4 25.6
2020-Aug-03 22:15 121 3 gusting 6 25.6
2020-Aug-03 22:10 113 1 gusting 2 25.6
2020-Aug-03 22:05 117 1 gusting 6 25.6
2020-Aug-03 22:00 108 2 gusting 6 25.6